Location: Unnamed
(53.9021°N, 27.5568°E)
Time: 19:30:43
(UTC+03:00)

STARLINK-73 - Pass Details

Date: 22 January 2020
Orbit: 528 x 531 km, 53.0° (Epoch: 25 February)

Event Time Altitude Azimuth Distance (km) Brightness Sun altitude
Exits shadow 07:45:44 - 235° (SW) 2,054 6.2 -12.4°
Reaches altitude 10° 07:46:26 10° 233° (SW) 1,776 5.9 -12.3°
Maximum altitude 07:50:20 49° 158° (SSE) 687 4.4 -11.7°
Drops below altitude 10° 07:54:15 10° 83° (E) 1,784 7.3 -11.2°
Sets 07:56:31 0° 78° (ENE) 2,676 8.2 -10.9°
